Weather History for Atka, AK

Change the Weather History Date:

Wednesday, December 19, 2012

  Actual Average (PADK) Record (PADK)
Temperature  
Mean Temperature 34 °F -  
Max Temperature 42 °F 38 °F 50 °F (2010)
Min Temperature 26 °F 30 °F 13 °F (1993)
Degree Days  
Heating Degree Days 31    
Moisture  
Dew Point -12 °F    
Average Humidity 12    
Maximum Humidity 13    
Minimum Humidity 11    
Precipitation  
Precipitation 0.00 in - - ()
Sea Level Pressure  
Sea Level Pressure 30.40 in    
Wind  
Wind Speed 11 mph (SE)    
Max Wind Speed 29 mph    
Max Gust Speed 39 mph    
Visibility 6 miles    
Events      
Averages and records for this station are not official NWS values.
T = Trace of Precipitation, MM = Missing Value Source: NWS Daily Summary

Daily Weather History Graph

Daily Weather History Graph

Search for Another Location

Airport:

Trip Planner

Search our weather history database for the weather conditions in past years. The results will help you decide how hot, cold, wet, or windy it might be!

Date:

Astronomy

Dec. 19, 2012 Rise Set
Actual Time 9:43 AM HAST 5:25 PM HAST
Civil Twilight 9:01 AM HAST 6:06 PM HAST
Nautical Twilight 8:17 AM HAST 6:50 PM HAST
Astronomical Twilight 7:36 AM HAST 7:32 PM HAST
Moon 1:06 PM HAST (12/19) 12:54 AM HAST (12/19)
Length of Visible Light 9h 04m
Length of Day
7h 42m
Waxing Crescent, 47% of the Moon is Illuminated
Dec 19
Waxing Crescent
Dec 19
First Quarter
Dec 28
Full
Jan 4
Last Quarter
Jan 11
New

Hourly Weather History & Observations

Time (HAST) Temp. Windchill Dew Point Humidity Pressure Visibility Wind Dir Wind Speed Gust Speed Precip Events Conditions
12:16 AM 26.6 °F - -18.4 °F 13% 30.67 in 10.0 mi Calm Calm - N/A   Partly Cloudy
12:36 AM 28.4 °F - -18.4 °F 12% 30.67 in 10.0 mi Calm Calm - N/A   Partly Cloudy
12:56 AM 28.4 °F - -18.4 °F 12% 30.66 in 10.0 mi Calm Calm - N/A   Clear
1:16 AM 28.4 °F 23.3 °F -18.4 °F 12% 30.67 in 10.0 mi NNW 4.6 mph - N/A   Clear
1:36 AM 28.4 °F - -18.4 °F 12% 30.67 in 10.0 mi Calm Calm - N/A   Clear
1:56 AM 28.4 °F - -18.4 °F 12% 30.67 in 10.0 mi Calm Calm - N/A   Clear
2:16 AM 26.6 °F 21.2 °F -20.2 °F 12% 30.68 in 10.0 mi WSW 4.6 mph - N/A   Clear
2:36 AM 26.6 °F - -18.4 °F 13% 30.67 in 10.0 mi Calm Calm - N/A   Clear
2:56 AM 28.4 °F - -18.4 °F 12% 30.67 in 10.0 mi Calm Calm - N/A   Clear
3:16 AM 26.6 °F - -18.4 °F 13% 30.67 in 10.0 mi Calm Calm - N/A   Clear
3:36 AM 26.6 °F - -18.4 °F 13% 30.67 in 10.0 mi Calm Calm - N/A   Clear
3:56 AM 26.6 °F - -18.4 °F 13% 30.66 in 10.0 mi Calm Calm - N/A   Clear
4:16 AM 28.4 °F - -18.4 °F 12% 30.65 in 10.0 mi Calm Calm - N/A   Clear
4:36 AM 28.4 °F 23.3 °F -18.4 °F 12% 30.64 in 10.0 mi South 4.6 mph - N/A   Mostly Cloudy
4:56 AM 30.2 °F 25.4 °F -16.6 °F 13% 30.64 in 10.0 mi South 4.6 mph - N/A   Overcast
5:16 AM 32.0 °F 27.5 °F -16.6 °F 12% 30.62 in 10.0 mi SSE 4.6 mph - N/A   Overcast
5:36 AM 33.8 °F 26.4 °F -14.8 °F 12% 30.62 in 10.0 mi SE 9.2 mph - N/A   Overcast
5:56 AM 35.6 °F 26.6 °F -13.0 °F 12% 30.61 in 10.0 mi SE 13.8 mph - N/A   Overcast
6:16 AM 35.6 °F 26.6 °F -13.0 °F 12% 30.59 in 10.0 mi ESE 13.8 mph - N/A   Overcast
6:36 AM 35.6 °F 26.2 °F -13.0 °F 12% 30.59 in 10.0 mi SE 15.0 mph - N/A   Overcast
6:56 AM 37.4 °F 28.2 °F -13.0 °F 11% 30.57 in 10.0 mi SE 16.1 mph - N/A   Overcast
7:16 AM 37.4 °F 27.5 °F -11.2 °F 12% 30.55 in 10.0 mi ESE 18.4 mph - N/A   Overcast
7:36 AM 37.4 °F 26.6 °F -11.2 °F 12% 30.54 in 10.0 mi SE 21.9 mph 26.5 mph N/A   Overcast
7:56 AM 37.4 °F 28.2 °F -11.2 °F 12% 30.53 in 10.0 mi SE 16.1 mph 23.0 mph N/A   Overcast
8:16 AM 37.4 °F 27.5 °F -11.2 °F 12% 30.51 in 10.0 mi SE 18.4 mph 21.9 mph N/A   Mostly Cloudy
8:36 AM 37.4 °F 26.9 °F -11.2 °F 12% 30.50 in 10.0 mi SE 20.7 mph 29.9 mph N/A   Scattered Clouds
8:56 AM 37.4 °F 27.5 °F -11.2 °F 12% 30.50 in 10.0 mi SSE 18.4 mph - N/A   Mostly Cloudy
9:16 AM 37.4 °F 26.4 °F -11.2 °F 12% 30.50 in 10.0 mi SE 23.0 mph 29.9 mph N/A   Overcast
9:36 AM 37.4 °F 26.6 °F -11.2 °F 12% 30.50 in 10.0 mi SE 21.9 mph 26.5 mph N/A   Overcast
9:56 AM 37.4 °F 26.1 °F -11.2 °F 12% 30.49 in 10.0 mi SE 24.2 mph 29.9 mph N/A   Overcast
10:16 AM 37.4 °F 26.9 °F -11.2 °F 12% 30.49 in 10.0 mi SSE 20.7 mph 34.5 mph N/A   Overcast
10:36 AM 37.4 °F 26.9 °F -11.2 °F 12% 30.48 in 10.0 mi SSE 20.7 mph 31.1 mph N/A   Overcast
10:56 AM 37.4 °F 27.5 °F -11.2 °F 12% 30.47 in 10.0 mi SE 18.4 mph 32.2 mph N/A   Overcast
11:16 AM 37.4 °F 26.6 °F -11.2 °F 12% 30.46 in 10.0 mi SE 21.9 mph 29.9 mph N/A   Overcast
11:36 AM 37.4 °F 26.1 °F -11.2 °F 12% 30.45 in 10.0 mi SE 24.2 mph 31.1 mph N/A   Overcast
12:16 PM 37.4 °F 27.8 °F -11.2 °F 12% 30.43 in 9.0 mi ESE 17.3 mph 36.8 mph N/A   Unknown
12:36 PM 37.4 °F 25.2 °F -11.2 °F 12% 30.40 in - SE 28.8 mph 39.1 mph N/A   Unknown
12:56 PM 37.4 °F 28.5 °F -11.2 °F 12% 30.40 in 5.0 mi SE 15.0 mph 31.1 mph N/A   Overcast
1:16 PM 37.4 °F 27.2 °F -11.2 °F 12% 30.38 in 2.5 mi SE 19.6 mph 28.8 mph N/A   Overcast
1:36 PM 37.4 °F 25.9 °F -11.2 °F 12% 30.35 in 2.0 mi ESE 25.3 mph 33.4 mph N/A   Overcast
1:56 PM 37.4 °F 26.6 °F -11.2 °F 12% 30.34 in 2.0 mi ESE 21.9 mph 34.5 mph N/A   Overcast
2:16 PM 37.4 °F 26.9 °F -11.2 °F 12% 30.34 in 2.5 mi SE 20.7 mph 31.1 mph N/A   Overcast
2:36 PM 37.4 °F 25.9 °F -11.2 °F 12% 30.32 in 2.5 mi SE 25.3 mph 33.4 mph N/A   Overcast
2:56 PM 37.4 °F 26.9 °F -11.2 °F 12% 30.31 in 1.8 mi SE 20.7 mph 32.2 mph N/A   Overcast
3:16 PM 37.4 °F 25.6 °F -11.2 °F 12% 30.28 in 1.8 mi SSE 26.5 mph 36.8 mph N/A   Overcast
3:36 PM 37.4 °F 25.4 °F -11.2 °F 12% 30.28 in 1.2 mi SE 27.6 mph 33.4 mph N/A   Overcast
3:56 PM 37.4 °F 26.6 °F -11.2 °F 12% 30.27 in 1.5 mi ESE 21.9 mph 31.1 mph N/A   Overcast
4:16 PM 37.4 °F 26.6 °F -11.2 °F 12% 30.25 in 1.8 mi ESE 21.9 mph 29.9 mph N/A   Overcast
4:36 PM 37.4 °F 26.6 °F -11.2 °F 12% 30.25 in 1.2 mi SE 21.9 mph 26.5 mph N/A   Overcast
4:56 PM 37.4 °F 26.6 °F -11.2 °F 12% 30.24 in 1.5 mi SE 21.9 mph 28.8 mph N/A   Overcast
5:16 PM 39.2 °F 30.2 °F -11.2 °F 11% 30.24 in 1.8 mi SE 17.3 mph 23.0 mph N/A   Overcast
5:36 PM 39.2 °F 28.3 °F -11.2 °F 11% 30.20 in 2.0 mi SE 25.3 mph 32.2 mph N/A   Overcast
5:56 PM 39.2 °F 29.8 °F -11.2 °F 11% 30.19 in 3.0 mi SSE 18.4 mph 28.8 mph N/A   Overcast
6:16 PM 39.2 °F 29.8 °F -9.4 °F 12% 30.20 in 3.0 mi SE 18.4 mph 29.9 mph N/A   Overcast
6:36 PM 39.2 °F 29.6 °F -9.4 °F 12% 30.19 in 3.0 mi SE 19.6 mph 31.1 mph N/A   Overcast
6:56 PM 39.2 °F 29.3 °F -9.4 °F 12% 30.17 in 2.0 mi SE 20.7 mph 33.4 mph N/A   Overcast
7:16 PM 41.0 °F 31.1 °F -9.4 °F 12% 30.16 in 5.0 mi SE 23.0 mph 35.7 mph N/A   Overcast
7:36 PM 41.0 °F 32.5 °F -9.4 °F 12% 30.16 in 4.0 mi SE 17.3 mph 29.9 mph N/A   Overcast
7:56 PM 41.0 °F 31.6 °F -9.4 °F 12% 30.14 in 5.0 mi SSE 20.7 mph 31.1 mph N/A   Overcast
8:16 PM 41.0 °F 31.4 °F -9.4 °F 12% 30.13 in 4.0 mi SE 21.9 mph 36.8 mph N/A   Overcast
8:36 PM 41.0 °F 31.9 °F -9.4 °F 12% 30.13 in 4.0 mi SE 19.6 mph 26.5 mph N/A   Overcast
8:56 PM 41.0 °F 33.9 °F -9.4 °F 12% 30.12 in 3.0 mi SE 12.7 mph 23.0 mph N/A   Overcast
9:16 PM 42.8 °F 36.6 °F -9.4 °F 11% 30.12 in 5.0 mi ESE 11.5 mph 19.6 mph N/A   Overcast
9:36 PM 42.8 °F 36.6 °F -9.4 °F 11% 30.10 in 4.0 mi ENE 11.5 mph 19.6 mph N/A   Overcast
9:56 PM 42.8 °F 35.4 °F -7.6 °F 12% 30.10 in 2.5 mi SE 15.0 mph 21.9 mph N/A   Overcast
10:16 PM 42.8 °F 35.8 °F -7.6 °F 12% 30.08 in 3.0 mi South 13.8 mph 31.1 mph N/A   Overcast
10:36 PM 42.8 °F 35.8 °F -7.6 °F 12% 30.07 in 3.0 mi South 13.8 mph 29.9 mph N/A   Overcast
10:56 PM 42.8 °F 34.8 °F -7.6 °F 12% 30.06 in 2.5 mi SSE 17.3 mph 32.2 mph N/A   Overcast
11:16 PM 42.8 °F 35.1 °F -7.6 °F 12% 30.05 in 2.5 mi SSE 16.1 mph 25.3 mph N/A   Overcast
11:36 PM 42.8 °F 35.1 °F -7.6 °F 12% 30.05 in 2.5 mi SE 16.1 mph 26.5 mph N/A   Overcast
11:56 PM 42.8 °F 35.4 °F -7.6 °F 12% 30.05 in 2.5 mi SSE 15.0 mph 21.9 mph N/A   Overcast